Other Public Products
Issued by NWS Grand Forks, ND

Home | Current Version | Previous Version | Graphics & Text | Print | Product List | Glossary On
Versions: 1 2 3 4 5 6 7 8 9 10 11 12 13 14 15 16 17 18 19 20 21 22 23 24 25 26 27 28 29 30 31 32 33 34 35 36 37 38 39 40 41 42 43 44 45 46 47 48 49 50
116
FPUS83 KFGF 211631
OPUFGF
PRAIRIE TO PINES WEATHER ROUNDUP
NATIONAL WEATHER SERVICE EASTERN NORTH DAKOTA/GRAND FORKS ND
1100 AM CDT SAT OCT 21 2017

 **SATELLITE DATA USED TO AUGMENT SKY COVER AT AUTOMATED STATIONS**
 *****  WEATHER ACROSS EASTERN NORTH DAKOTA  *****

CITY           SKY/WX    TMP DP  RH WIND       PRES   REMARKS
GRAND FORKS    PTSUNNY   62  41  46 SW13      29.44R
GRAND FORKS AF FAIR      60  39  46 SW12      29.45R
GRAND CITY NWS NOT AVBL
BUXTON           N/A     63  41  45 W13         N/A
DEVILS LAKE    FAIR      52  40  63 W28G33    29.45R
FARGO          CLOUDY    60  41  49 W13       29.50R
WAHPETON ARPT  NOT AVBL
$$

 *****  WEATHER ACROSS CENTRAL AND WESTERN NORTH DAKOTA  *****

CITY           SKY/WX    TMP DP  RH WIND       PRES   REMARKS
JAMESTOWN      FAIR      56  40  55 W23       29.51R
BISMARCK       CLOUDY    49  42  77 NW13      29.57S
MINOT          CLOUDY    50  39  66 SW23G31   29.49R
MINOT AFB      FAIR      49  39  67 W22G29    29.47R
GARRISON         N/A     49  39  68 W23G36    29.54R
WILLISTON      CLOUDY    46  38  73 W18G26    29.57
DICKINSON      CLOUDY    46  35  65 W33G46    29.60R
HETTINGER      FAIR      47  30  51 W28G37    29.68R
$$

 *****  OTHER OBSERVATIONS NORTHEAST NORTH DAKOTA  *****

CITY           SKY/WX    TMP DP  RH WIND       PRES   REMARKS
WALHALLA       FAIR     N/A N/A N/A SW10      29.38R
LANGDON        FAIR      57  41  54 W25G33    29.37S
CAVALIER       FAIR      59  43  55 SW14      29.39R
GRAFTON        FAIR      59  41  51 SW17      29.44S
CANDO          FAIR      55  41  58 W23G38    29.45R
FORT TOTTEN    NOT AVBL
ROLLA          FAIR      52  39  62 W20G28    29.41R
RUGBY          FAIR      50  39  66 W26G35    29.46R
 ***** THE ABOVE OBSERVATIONS ARE NON NWS ARE NOT QUALITY
        CONTROLLED AND MAY MIS-REPORT RAIN FOR SNOW...
$$

 *****  OTHER OBSERVATIONS SOUTHEAST NORTH DAKOTA *****

CITY           SKY/WX    TMP DP  RH WIND       PRES   REMARKS
COOPERSTOWN    FAIR      55  41  58 W24G31    29.50R
VALLEY CITY    FAIR      55  43  62 W20G26    29.54R
OAKES          NOT AVBL
GWINNER        SUNNY     59  43  55 NW17      29.52S
SHEYENNE NWR     N/A     58  42  54 NW14      29.95S
BUFFALO          N/A     59  37  43 NW16        N/A
WYNDMERE       NOT AVBL
 ***** THE ABOVE OBSERVATIONS ARE NON NWS ARE NOT QUALITY
       CONTROLLED AND MAY MIS-REPORT RAIN FOR SNOW...
$$

  *****  WEATHER ACROSS NORTHERN MINNESOTA  *****

CITY           SKY/WX    TMP DP  RH WIND       PRES   REMARKS
FLAG ISLAND    CLOUDY    55  52  88 S20       29.44R
WARROAD        CLOUDY    64  59  82 S13       29.44S
ROSEAU         CLOUDY    66  59  77 S21G28    29.43R
HALLOCK        FAIR      61  39  44 SW15      29.40R
THF RVR FALLS  CLOUDY    64  57  78 S16       29.46R
HALSTAD          N/A     60  43  52 W13         N/A
FOSSTON        CLOUDY    63  55  77 S17       29.49R
BAUDETTE       CLOUDY    65  57  75 S20G29    29.47F
WASKISH        CLOUDY    64  57  77 S9G20     29.51S
CROOKSTON      PTSUNNY   63  43  48 W12       29.47R
$$
  *****  WEATHER ACROSS CENTRAL AND WEST MINNESOTA  *****

CITY           SKY/WX    TMP DP  RH WIND       PRES   REMARKS
BEMIDJI        CLOUDY    62  56  80 S14       29.52S
PARK RAPIDS    CLOUDY    63  57  81 S20G30    29.54S
WADENA         CLOUDY    63  55  77 SE12      29.54S
DETROIT LAKES  CLOUDY    63  57  82 S12       29.52R
MOORHEAD       CLOUDY    61  43  51 W9        29.51R
FERGUS FALLS   CLOUDY    64  57  77 S13G18    29.50S
ELBOW LAKE     CLOUDY    63  59  87 SE10      29.52S
MORRIS MN      PTSUNNY   66  61  82 S9        29.51S
STAPLES        CLOUDY    61  55  82 SE12      29.57S
WHEATON        PTSUNNY   64  57  77 S7        29.50F
$$
  *****  WEATHER ELSEWHERE ACROSS MINNESOTA  *****

CITY           SKY/WX    TMP DP  RH WIND       PRES   REMARKS
DULUTH         LGT RAIN  56  56 100 S17       29.69F FOG
INTRNTL FALLS  CLOUDY    65  54  67 S13G20    29.55S
ELY            LGT RAIN  59  52  77 S10       29.67F
CLOQUET        RAIN      57  55  94 S9        29.68S
BRAINERD       CLOUDY    60  56  86 S14G28    29.60S
HIBBING        LGT RAIN  57  55  93 S13G23    29.65S FOG
ALEXANDRIA     CLOUDY    64  58  80 S14       29.56S
SAINT CLOUD    LGT RAIN  59  59 100 SE15      29.62S
MINNEAPOLIS    LGT RAIN  62  60  93 S15G21    29.69R
$$

  *****  WEATHER ACROSS SOUTH DAKOTA  *****

CITY           SKY/WX    TMP DP  RH WIND       PRES   REMARKS
SIOUX FALLS    PTSUNNY   70  64  81 S18G30    29.54R
BROOKINGS      CLOUDY    66  61  84 S16       29.52S
WATERTOWN      CLOUDY    56  47  71 NW16G30   29.53R
HURON          CLOUDY    54  43  66 NW17      29.59R
SISSETON         N/A     61  46  57 NW16      29.51R
ABERDEEN       FAIR      57  42  57 NW20G31   29.56R
MITCHELL       CLOUDY    56  42  59 NW20      29.62R
PIERRE         LGT RAIN  47  43  86 W20G26    29.76R
MOBRIDGE       CLOUDY    50  41  71 NW15      29.61R
RAPID CITY     FAIR      49  23  36 NW20      29.81R
$$

  *****  SOME WEATHER IN NEARBY STATES *****

CITY           SKY/WX    TMP DP  RH WIND       PRES   REMARKS
GLASGOW MT     FAIR      46  38  73 W23G33    29.69R
GREAT FALLS MT FAIR      43  25  49 SW18G25   29.86R
CHEYENNE WY    FAIR      41  17  38 W37G48    29.95R
SCOTTSBLUFF NE FAIR      50  23  34 W21       29.92R
OMAHA NE       CLOUDY    71  61  70 S24G33    29.65S
DES MOINES IA  CLOUDY    68  58  70 S16G30    29.78S
DAVENPORT IA   FAIR      71  55  56 S17G31    29.97F
CHICAGO IL     FAIR      68  52  56 S17       30.06S
EAU CLAIRE WI  CLOUDY    61  58  90 S9        29.79S
LA CROSSE WI   PTSUNNY   67  56  67 S18G28    29.83F
$$

  *****  SOME NATIONAL WEATHER *****

CITY           SKY/WX    TMP DP  RH WIND       PRES   REMARKS
LA GUARDIA NY  FAIR      73  45  36 CALM      30.33S
RALEIGH NC     FAIR      73  53  49 SE5       30.35S
ATLANTA GA     PTSUNNY   70  57  63 E6        30.30F
NEW ORLEANS LA PTSUNNY   81  74  79 SE13      30.07F
OKLAHOMA CITY  CLOUDY    71  65  81 S20G29    29.86S
ALBUQUERQUE NM FAIR      60  35  39 NW12      30.04R
SALT LAKE CITY FAIR      46  28  49 VRB3      30.21R
LOS ANGELES CA FAIR      66  53  63 VRB5      30.05R
BOISE ID       FAIR      39  33  79 SE13      30.15R
SEATTLE WA     CLOUDY    46  43  89 SE8       29.78S
$$

*** WEATHER ACROSS MANITOBA...SASKATCHEWAN AND ONTARIO ***
                ***ONTARIO***

CITY           SKY/WX    TMP DP  RH WIND       PRES   REMARKS
GERALDTON      CLOUDY    59  50  72 S12G18    29.82R
THUNDER BAY    PTSUNNY   66  52  59 S12G21    29.76S
SIOUX LOOKOUT  CLOUDY    64  54  68 S14G22    29.57S
TORONTO        CLOUDY    64  54  68 SE6       30.24F
BIG TROUT LK   SUNNY     43  37  81 SE12G23   29.63F
PICKLE LAKE    CLOUDY    57  46  67 S13G20    29.60F THUNDER
DRYDEN         CLOUDY    61  54  77 S15       29.54S
KENORA         CLOUDY    63  55  77 S16G23    29.46S
$$
                *** MANITOBA***

CITY           SKY/WX    TMP DP  RH WIND       PRES   REMARKS
BRANDON        PTSUNNY   48  39  71 W21G30    29.34R
DAUPHIN        SUNNY     54  41  62 W21G30    29.23R
ISLAND LAKE    PTSUNNY   59  48  67 SE12      29.35
PILOT MOUND      N/A     54  37  54 W13G23      N/A
THE PAS        PTSUNNY   41  37  87 N13       29.26R
THOMPSON       MOSUNNY   45  37  76 E6        29.30S
WINNIPEG       MOSUNNY   64  55  72 S25G32    29.30R
LYNN LAKE      FOG       34  34 100 N9        29.37F VSB 3/8
CHURCHILL      LGT RAIN  36  34  93 SE23G29   29.52F
GILLAM         CLOUDY    43  36  75 SE9G20    29.40F
$$
                ***SASKATCHEWAN***

CITY           SKY/WX    TMP DP  RH WIND       PRES   REMARKS
ESTEVAN        CLOUDY    48  39  71 W18G26    29.45F
KINDERSLEY     PTSUNNY   39  34  81 NW13G21   29.62R
LLOYDMINSTER   CLOUDY    39  32  75 NW14G20   29.58R
PRINCE ALBERT  CLOUDY    41  36  81 NW14G20   29.43R
REGINA         CLOUDY    45  39  81 W22G30    29.45R
YORKTON        CLOUDY    43  39  87 W17G25    29.33R



USA.gov is the U.S. government's official web portal to all federal, state and local government web resources and services.